When you browse on this site, cookies collect data to enhance your experience and personalize the content and advertising you see.
Visit our Privacy Policy to learn more. By continuing to use the site, you agree to this use of cookies and data.
  • In Austria
  • List of Countries
  • For 7 days
  • Water Temperature
  • Weather Map
  • News
  • Weather Widgets
  • user-avatar
    Login

    Hourly Weather Huejutla de Reyes

    Today, 21 October, Monday

    Time Temperature Precipitation Wind Pressure Humidity
    00:00 +26°C° 0 mm 1 mps 742 mmHg 93%
    01:00 +26°C° 0 mm 1 mps 742 mmHg 94%
    02:00 +26°C° 0 mm 1 mps 742 mmHg 94%
    03:00 +26°C° 0 mm 1 mps 742 mmHg 93%
    04:00 +25°C° 0 mm 1 mps 742 mmHg 93%
    05:00 +25°C° 0 mm 1 mps 742 mmHg 93%
    06:00 +27°C° 0 mm 1 mps 742 mmHg 88%
    07:00 +26°C° 0 mm 0 mps 743 mmHg 84%
    08:00 +28°C° 0 mm 0 mps 743 mmHg 80%
    09:00 +31°C° 0 mm 1 mps 743 mmHg 77%
    10:00 +32°C° 0 mm 1 mps 743 mmHg 75%
    11:00 +33°C° 0 mm 1 mps 743 mmHg 72%
    12:00 +33°C° 0.4 mm 1 mps 742 mmHg 72%
    13:00 +33°C° 0.4 mm 1 mps 742 mmHg 73%
    14:00 +33°C° 0.4 mm 1 mps 741 mmHg 73%
    15:00 +32°C° 0.6 mm 1 mps 741 mmHg 76%
    16:00 +31°C° 0.6 mm 1 mps 742 mmHg 80%
    17:00 +30°C° 0.6 mm 1 mps 742 mmHg 83%
    18:00 +29°C° 3.8 mm 1 mps 743 mmHg 86%
    19:00 +28°C° 3.8 mm 1 mps 744 mmHg 89%
    20:00 +27°C° 3.8 mm 2 mps 745 mmHg 93%
    21:00 +27°C° 5.6 mm 2 mps 745 mmHg 94%
    22:00 +26°C° 5.6 mm 2 mps 745 mmHg 95%
    23:00 +26°C° 5.6 mm 2 mps 746 mmHg 96%

    Tomorrow, 22 October, Tuesday

    Time Temperature Precipitation Wind Pressure Humidity
    00:00 +26°C° 2.8 mm 2 mps 746 mmHg 96%
    01:00 +25°C° 2.8 mm 2 mps 746 mmHg 95%
    02:00 +25°C° 2.8 mm 3 mps 746 mmHg 95%
    03:00 +25°C° 0.5 mm 2 mps 746 mmHg 94%
    04:00 +25°C° 0.5 mm 2 mps 746 mmHg 93%
    05:00 +24°C° 0.5 mm 2 mps 746 mmHg 92%
    06:00 +25°C° 0 mm 2 mps 747 mmHg 90%
    07:00 +26°C° 0 mm 2 mps 747 mmHg 88%
    08:00 +26°C° 0 mm 2 mps 748 mmHg 86%
    09:00 +26°C° 0.1 mm 3 mps 748 mmHg 87%
    10:00 +25°C° 0.1 mm 3 mps 748 mmHg 88%
    11:00 +25°C° 0.1 mm 4 mps 748 mmHg 88%
    12:00 +23°C° 0.3 mm 4 mps 747 mmHg 90%
    13:00 +24°C° 0.3 mm 3 mps 747 mmHg 92%
    14:00 +23°C° 0.3 mm 2 mps 746 mmHg 94%
    15:00 +23°C° 0.6 mm 2 mps 747 mmHg 96%
    16:00 +23°C° 0.6 mm 2 mps 747 mmHg 97%
    17:00 +23°C° 0.6 mm 1 mps 748 mmHg 98%
    18:00 +23°C° 0.5 mm 1 mps 748 mmHg 98%
    19:00 +23°C° 0.5 mm 1 mps 748 mmHg 98%
    20:00 +23°C° 0.5 mm 1 mps 749 mmHg 98%
    21:00 +23°C° 0.6 mm 1 mps 749 mmHg 97%
    22:00 +23°C° 0.6 mm 1 mps 749 mmHg 97%
    23:00 +23°C° 0.6 mm 1 mps 749 mmHg 97%

    Day after tomorrow, 23 October, Wednesday

    Time Temperature Precipitation Wind Pressure Humidity
    00:00 +23°C° 0.2 mm 1 mps 748 mmHg 97%
    01:00 +23°C° 0.2 mm 1 mps 748 mmHg 96%
    02:00 +22°C° 0.2 mm 1 mps 747 mmHg 96%
    03:00 +23°C° 0 mm 1 mps 747 mmHg 95%
    04:00 +23°C° 0 mm 1 mps 747 mmHg 95%
    05:00 +23°C° 0 mm 1 mps 747 mmHg 94%
    06:00 +24°C° 0 mm 1 mps 748 mmHg 91%
    07:00 +25°C° 0 mm 1 mps 748 mmHg 87%
    08:00 +26°C° 0 mm 2 mps 748 mmHg 84%
    09:00 +26°C° 0 mm 2 mps 748 mmHg 83%
    10:00 +27°C° 0 mm 2 mps 747 mmHg 82%
    11:00 +27°C° 0 mm 2 mps 747 mmHg 81%
    12:00 +28°C° 0 mm 2 mps 746 mmHg 80%
    13:00 +28°C° 0 mm 2 mps 745 mmHg 79%
    14:00 +29°C° 0 mm 2 mps 744 mmHg 78%
    15:00 +28°C° 0.4 mm 1 mps 745 mmHg 82%
    16:00 +26°C° 0.4 mm 1 mps 745 mmHg 86%
    17:00 +23°C° 0.4 mm 0 mps 745 mmHg 90%
    18:00 +23°C° 0.8 mm 0 mps 745 mmHg 91%
    19:00 +25°C° 0.8 mm 1 mps 746 mmHg 91%
    20:00 +24°C° 0.8 mm 1 mps 747 mmHg 91%
    21:00 +24°C° 0.1 mm 1 mps 746 mmHg 91%
    22:00 +24°C° 0.1 mm 1 mps 746 mmHg 91%
    23:00 +23°C° 0.1 mm 1 mps 746 mmHg 90%

    24 October, Thursday

    Time Temperature Precipitation Wind Pressure Humidity
    00:00 +23°C° 0 mm 1 mps 746 mmHg 90%
    01:00 +23°C° 0 mm 1 mps 745 mmHg 91%
    02:00 +22°C° 0 mm 1 mps 745 mmHg 91%
    03:00 +22°C° 0 mm 1 mps 745 mmHg 90%
    04:00 +22°C° 0 mm 1 mps 745 mmHg 90%
    05:00 +22°C° 0 mm 1 mps 745 mmHg 89%
    06:00 +24°C° 0 mm 1 mps 745 mmHg 85%
    07:00 +25°C° 0 mm 1 mps 745 mmHg 81%
    08:00 +25°C° 0 mm 0 mps 746 mmHg 77%
    09:00 +28°C° 0 mm 1 mps 745 mmHg 75%
    10:00 +29°C° 0 mm 1 mps 745 mmHg 73%
    11:00 +30°C° 0 mm 1 mps 744 mmHg 70%
    12:00 +30°C° 0 mm 1 mps 743 mmHg 72%
    13:00 +30°C° 0 mm 2 mps 743 mmHg 74%
    14:00 +30°C° 0 mm 2 mps 742 mmHg 75%
    15:00 +28°C° 0.1 mm 1 mps 742 mmHg 79%
    16:00 +27°C° 0.1 mm 1 mps 743 mmHg 83%
    17:00 +24°C° 0.1 mm 0 mps 743 mmHg 86%
    18:00 +24°C° 0.4 mm 0 mps 743 mmHg 88%
    19:00 +25°C° 0.4 mm 1 mps 744 mmHg 90%
    20:00 +25°C° 0.4 mm 1 mps 745 mmHg 92%
    21:00 +24°C° 0.4 mm 1 mps 745 mmHg 93%
    22:00 +24°C° 0.4 mm 1 mps 745 mmHg 93%
    23:00 +24°C° 0.4 mm 1 mps 745 mmHg 94%

    25 October, Friday

    Time Temperature Precipitation Wind Pressure Humidity
    00:00 +24°C° 0.8 mm 1 mps 745 mmHg 94%
    01:00 +24°C° 0.8 mm 1 mps 745 mmHg 93%
    02:00 +24°C° 0.8 mm 1 mps 745 mmHg 93%
    03:00 +24°C° 1 mm 2 mps 745 mmHg 93%
    04:00 +24°C° 1 mm 2 mps 745 mmHg 93%
    05:00 +24°C° 1 mm 2 mps 746 mmHg 93%
    06:00 +23°C° 0.9 mm 2 mps 746 mmHg 94%
    07:00 +22°C° 0.9 mm 3 mps 747 mmHg 94%
    08:00 +22°C° 0.9 mm 3 mps 748 mmHg 95%
    09:00 +22°C° 0.6 mm 3 mps 748 mmHg 94%
    10:00 +21°C° 0.6 mm 3 mps 748 mmHg 93%
    11:00 +21°C° 0.6 mm 3 mps 748 mmHg 92%
    12:00 +21°C° 0.3 mm 3 mps 748 mmHg 92%
    13:00 +21°C° 0.3 mm 3 mps 748 mmHg 91%
    14:00 +21°C° 0.3 mm 2 mps 748 mmHg 90%
    15:00 +20°C° 0.3 mm 2 mps 748 mmHg 90%
    16:00 +20°C° 0.3 mm 2 mps 749 mmHg 90%
    17:00 +20°C° 0.3 mm 2 mps 749 mmHg 90%
    18:00 +20°C° 0.2 mm 2 mps 750 mmHg 89%
    19:00 +20°C° 0.2 mm 2 mps 750 mmHg 88%
    20:00 +20°C° 0.2 mm 2 mps 751 mmHg 87%
    21:00 +19°C° 0.1 mm 2 mps 751 mmHg 85%
    22:00 +19°C° 0.1 mm 3 mps 751 mmHg 83%
    23:00 +18°C° 0.1 mm 3 mps 751 mmHg 81%

    26 October, Saturday

    Time Temperature Precipitation Wind Pressure Humidity
    00:00 +18°C° 0 mm 3 mps 751 mmHg 79%
    01:00 +18°C° 0 mm 3 mps 751 mmHg 77%
    02:00 +18°C° 0 mm 2 mps 750 mmHg 76%
    03:00 +18°C° 0 mm 2 mps 751 mmHg 73%
    04:00 +17°C° 0 mm 3 mps 751 mmHg 70%
    05:00 +17°C° 0 mm 3 mps 751 mmHg 68%
    06:00 +18°C° 0 mm 3 mps 751 mmHg 67%
    07:00 +19°C° 0 mm 3 mps 752 mmHg 66%
    08:00 +19°C° 0 mm 3 mps 752 mmHg 65%
    09:00 +20°C° 0 mm 3 mps 751 mmHg 63%
    10:00 +20°C° 0 mm 3 mps 751 mmHg 61%
    11:00 +21°C° 0 mm 3 mps 750 mmHg 60%
    12:00 +21°C° 0 mm 3 mps 749 mmHg 61%
    13:00 +21°C° 0 mm 3 mps 748 mmHg 62%
    14:00 +21°C° 0 mm 2 mps 748 mmHg 64%
    15:00 +21°C° 0 mm 1 mps 748 mmHg 68%
    16:00 +20°C° 0 mm 1 mps 748 mmHg 72%
    17:00 +16°C° 0 mm 0 mps 748 mmHg 76%
    18:00 +16°C° 0 mm 0 mps 749 mmHg 77%
    19:00 +15°C° 0 mm 0 mps 749 mmHg 78%
    20:00 +16°C° 0 mm 1 mps 749 mmHg 79%
    21:00 +16°C° 0 mm 1 mps 749 mmHg 79%
    22:00 +15°C° 0 mm 1 mps 749 mmHg 78%
    23:00 +15°C° 0 mm 1 mps 749 mmHg 77%

    27 October, Sunday

    Time Temperature Precipitation Wind Pressure Humidity
    00:00 +15°C° 0 mm 1 mps 748 mmHg 77%
    01:00 +15°C° 0 mm 1 mps 747 mmHg 76%
    02:00 +14°C° 0 mm 0 mps 747 mmHg 75%
    03:00 +14°C° 0 mm 0 mps 747 mmHg 75%
    04:00 +14°C° 0 mm 0 mps 746 mmHg 75%
    05:00 +14°C° 0 mm 0 mps 746 mmHg 76%
    06:00 +16°C° 0 mm 0 mps 747 mmHg 74%
    07:00 +17°C° 0 mm 0 mps 747 mmHg 72%
    08:00 +19°C° 0 mm 0 mps 747 mmHg 70%
    09:00 +22°C° 0 mm 1 mps 747 mmHg 69%
    10:00 +23°C° 0 mm 1 mps 747 mmHg 68%
    11:00 +24°C° 0 mm 2 mps 747 mmHg 67%
    12:00 +25°C° 0 mm 2 mps 746 mmHg 68%
    13:00 +25°C° 0 mm 2 mps 745 mmHg 70%
    14:00 +25°C° 0 mm 2 mps 745 mmHg 71%
    15:00 +24°C° 0 mm 1 mps 745 mmHg 75%
    16:00 +23°C° 0 mm 1 mps 745 mmHg 79%
    17:00 +21°C° 0 mm 1 mps 746 mmHg 83%
    18:00 +19°C° 0 mm 0 mps 746 mmHg 85%
    19:00 +18°C° 0 mm 0 mps 747 mmHg 87%
    20:00 +17°C° 0 mm 0 mps 747 mmHg 90%
    21:00 +17°C° 0 mm 0 mps 747 mmHg 90%
    22:00 +17°C° 0 mm 0 mps 747 mmHg 91%
    23:00 +16°C° 0 mm 0 mps 747 mmHg 92%
    Show more